Location: Aressy
(43.2833°N, 0.3167°W)
Time: 01:25:27
(UTC+00:00)

YAOGAN 1 - Pass Details

Date: 28 January 2021
Orbit: 618 x 620 km, 97.9° (Epoch: 08 March)

Event Time Altitude Azimuth Distance (km) Brightness Sun altitude
Rises 19:08:38 0° 181° (S) 2,882 6.1 -22.0°
Reaches altitude 10° 19:10:53 10° 187° (S) 1,982 5.3 -22.4°
Maximum altitude 19:15:01 46° 261° (W) 843 3.6 -23.1°
Drops below altitude 10° 19:19:12 10° 335° (NNW) 1,997 5.4 -23.9°
Sets 19:21:29 0° 341° (NNW) 2,908 6.2 -24.3°
